This is the latest recevied weather packets stored in our database for station/object DW9280. If no packets are shown the sender has not sent any weather packets the latest 1 day(s).
| Time | Temp. | Humidity | Pressure | Rain* | Wind** | Luminosity | Snow |
|---|---|---|---|---|---|---|---|
| 1777983788 | 14.44° C | 70% | 1011.1 hPa | 0 mm | 3.13 m/s, 334° | 441 W/m² | - |
| 1777983488 | 14.44° C | 70% | 1011.2 hPa | 0 mm | 2.68 m/s, 291° | 784 W/m² | - |
| 1777983188 | 14.44° C | 71% | 1011.2 hPa | 0 mm | 2.68 m/s, 338° | 800 W/m² | - |
| 1777982886 | 14.44° C | 70% | 1011.3 hPa | 0 mm | 2.24 m/s, 333° | 482 W/m² | - |
| 1777982584 | 14.44° C | 71% | 1011.3 hPa | 0 mm | 1.79 m/s, 336° | 390 W/m² | - |
| 1777982282 | 14.44° C | 72% | 1011.3 hPa | 0 mm | 2.24 m/s, 28° | 770 W/m² | - |
| 1777981983 | 14.44° C | 72% | 1011.3 hPa | 0 mm | 2.24 m/s, 311° | 332 W/m² | - |
| 1777981680 | 13.89° C | 71% | 1011.4 hPa | 0 mm | 2.68 m/s, 309° | 926 W/m² | - |
| 1777981375 | 13.89° C | 71% | 1011.4 hPa | 0 mm | 2.24 m/s, 299° | 789 W/m² | - |
| 1777981075 | 14.44° C | 70% | 1011.4 hPa | 0 mm | 1.79 m/s, 22° | 364 W/m² | - |
| 1777980775 | 14.44° C | 72% | 1011.4 hPa | 0 mm | 2.24 m/s, 343° | 410 W/m² | - |
| 1777980474 | 13.89° C | 72% | 1011.4 hPa | 0 mm | 2.24 m/s, 19° | 886 W/m² | - |
| 1777980294 | 13.33° C | 71% | 1011.4 hPa | 0 mm | 1.79 m/s, 323° | 336 W/m² | - |
| 1777979866 | 13.89° C | 71% | 1011.5 hPa | 0 mm | 1.79 m/s, 31° | 345 W/m² | - |
| 1777979567 | 13.89° C | 72% | 1011.5 hPa | 0 mm | 2.24 m/s, 36° | 861 W/m² | - |
| 1777979265 | 13.33° C | 72% | 1011.5 hPa | 0 mm | 2.24 m/s, 51° | 450 W/m² | - |
| 1777978966 | 13.33° C | 74% | 1011.5 hPa | 0 mm | 1.79 m/s, 48° | 824 W/m² | - |
| 1777978665 | 13.33° C | 75% | 1011.6 hPa | 0 mm | 1.79 m/s, 330° | 343 W/m² | - |
| 1777978364 | 12.78° C | 77% | 1011.7 hPa | 0 mm | 1.34 m/s, 299° | 1063 W/m² | - |
| 1777978184 | 12.78° C | 79% | 1011.8 hPa | 0 mm | 1.34 m/s, 355° | 432 W/m² | - |
| 1777977759 | 12.22° C | 79% | 1011.8 hPa | 0 mm | 1.79 m/s, 61° | 336 W/m² | - |
| 1777977461 | 12.22° C | 79% | 1011.9 hPa | 0 mm | 1.34 m/s, 22° | 287 W/m² | - |
| 1777977158 | 12.22° C | 80% | 1011.9 hPa | 0 mm | 1.34 m/s, 21° | 338 W/m² | - |
| 1777976857 | 11.67° C | 80% | 1012 hPa | 0 mm | 1.34 m/s, 36° | 316 W/m² | - |
| 1777976557 | 11.67° C | 81% | 1012 hPa | 0 mm | 1.34 m/s, 46° | 301 W/m² | - |
* Rain latest hour (hover to see other rain measurements)
** Current wind speed in m/s (hover to see current wind gust speed)